| time (UTC) | temp F | wind direction | speed MPH | gust MPH | rain 1hr in | rain 24hr in | rain mn in | humidity % | barometer mb |
| 20260505121537 | 30 | 349 | 1.0 | 3.0 | 0.00 | 0.00 | 0.00 | 73 | 1021.6 |
| 20260505120031 | 29 | 349 | 1.0 | 4.0 | 0.00 | 0.00 | 0.00 | 72 | 1021.4 |
| 20260505114529 | 29 | 0 | 1.0 | 5.0 | 0.00 | 0.00 | 0.00 | 73 | 1021.1 |
| 20260505113038 | 29 | 311 | 2.0 | 4.0 | 0.00 | 0.00 | 0.00 | 76 | 1021.0 |
| 20260505111541 | 28 | 311 | 2.0 | 4.0 | 0.00 | 0.00 | 0.00 | 76 | 1021.0 |
| 20260505101534 | 28 | 311 | 0.0 | 3.0 | 0.00 | 0.00 | 0.00 | 72 | 1020.8 |
| 20260505100028 | 28 | 331 | 0.0 | 2.0 | 0.00 | 0.00 | 0.00 | 73 | 1020.8 |
| 20260505094531 | 28 | 0 | 0.0 | 5.0 | 0.00 | 0.00 | 0.00 | 73 | 1020.7 |
| 20260505093034 | 28 | 0 | 2.0 | 5.0 | 0.00 | 0.00 | 0.00 | 71 | 1020.6 |
| 20260505091530 | 29 | 282 | 2.0 | 3.0 | 0.00 | 0.00 | 0.00 | 71 | 1020.6 |
| 20260505090031 | 29 | 282 | 1.0 | 4.0 | 0.00 | 0.00 | 0.00 | 72 | 1020.6 |
| 20260505084532 | 28 | 282 | 1.0 | 4.0 | 0.00 | 0.00 | 0.00 | 69 | 1020.6 |
| 20260505083033 | 30 | 44 | 3.0 | 4.0 | 0.00 | 0.00 | 0.00 | 65 | 1020.5 |
| 20260505081530 | 31 | 0 | 0.0 | 3.0 | 0.00 | 0.00 | 0.00 | 64 | 1020.3 |
| 20260505080031 | 30 | 0 | 0.0 | 0.0 | 0.00 | 0.00 | 0.00 | 68 | 1020.4 |
| 20260505074531 | 31 | 0 | 0.0 | 0.0 | 0.00 | 0.00 | 0.00 | 64 | 1020.5 |
| 20260505073035 | 33 | 0 | 0.0 | 0.0 | 0.00 | 0.00 | 0.00 | 58 | 1020.5 |
| 20260505071534 | 33 | 0 | 0.0 | 0.0 | 0.00 | 0.00 | 0.00 | 57 | 1020.5 |
| 20260505070030 | 33 | 0 | 0.0 | 5.0 | 0.00 | 0.00 | 0.00 | 57 | 1020.4 |
| 20260505064533 | 35 | 44 | 3.0 | 6.0 | 0.00 | 0.00 | 0.00 | 54 | 1020.3 |
| 20260505063031 | 36 | 30 | 3.0 | 7.0 | 0.00 | 0.00 | 0.00 | 53 | 1020.2 |
| 20260505061552 | 37 | 40 | 6.0 | 10.0 | 0.00 | 0.00 | 0.00 | 51 | 1020.0 |
| 20260505060032 | 39 | 64 | 7.0 | 14.0 | 0.00 | 0.00 | 0.00 | 50 | 1019.9 |
| 20260505054542 | 39 | 67 | 6.0 | 12.0 | 0.00 | 0.00 | 0.00 | 49 | 1019.8 |
| 20260505053031 | 40 | 79 | 3.0 | 8.0 | 0.00 | 0.00 | 0.00 | 46 | 1019.7 |
| 20260505051531 | 41 | 84 | 0.0 | 9.0 | 0.00 | 0.00 | 0.00 | 46 | 1019.7 |
| 20260505041535 | 45 | 349 | 5.0 | 8.0 | 0.00 | 0.00 | 0.00 | 49 | 1019.0 |
| 20260505040040 | 45 | 330 | 1.0 | 3.0 | 0.00 | 0.00 | 0.00 | 47 | 1018.8 |
| 20260505034540 | 46 | 330 | 1.0 | 4.0 | 0.00 | 0.00 | 0.00 | 45 | 1018.6 |
| 20260505033033 | 47 | 330 | 0.0 | 2.0 | 0.00 | 0.00 | 0.00 | 43 | 1018.6 |
| 20260505031538 | 48 | 0 | 0.0 | 0.0 | 0.00 | 0.00 | 0.00 | 43 | 1018.5 |
| 20260505030030 | 48 | 330 | 1.0 | 3.0 | 0.00 | 0.00 | 0.00 | 42 | 1018.5 |
| 20260505024531 | 49 | 330 | 2.0 | 4.0 | 0.00 | 0.00 | 0.00 | 42 | 1018.4 |
| 20260505023031 | 49 | 330 | 2.0 | 5.0 | 0.00 | 0.00 | 0.00 | 40 | 1018.3 |
| 20260505021533 | 50 | 334 | 4.0 | 8.0 | 0.00 | 0.00 | 0.00 | 39 | 1018.2 |
| 20260505020039 | 51 | 329 | 5.0 | 9.0 | 0.00 | 0.00 | 0.00 | 38 | 1018.3 |
| 20260505014532 | 51 | 331 | 8.0 | 11.0 | 0.00 | 0.00 | 0.00 | 37 | 1018.3 |
| 20260505013031 | 52 | 331 | 11.0 | 16.0 | 0.00 | 0.00 | 0.00 | 37 | 1018.3 |
| 20260505011530 | 52 | 355 | 12.0 | 17.0 | 0.00 | 0.00 | 0.00 | 37 | 1018.4 |
| 20260505010031 | 52 | 327 | 11.0 | 22.0 | 0.00 | 0.00 | 0.00 | 36 | 1018.4 |
| 20260505004532 | 52 | 325 | 15.0 | 22.0 | 0.00 | 0.00 | 0.00 | 35 | 1018.4 |
| 20260505003031 | 53 | 355 | 15.0 | 21.0 | 0.00 | 0.00 | 0.00 | 33 | 1018.5 |
| 20260505001530 | 53 | 355 | 11.0 | 21.0 | 0.00 | 0.00 | 0.00 | 34 | 1018.5 |
| 20260505000043 | 54 | 342 | 12.0 | 21.0 | 0.00 | 0.00 | 0.00 | 34 | 1018.3 |
| 20260504234533 | 53 | 351 | 10.0 | 21.0 | 0.00 | 0.00 | 0.00 | 35 | 1018.4 |
| 20260504233034 | 53 | 333 | 12.0 | 18.0 | 0.00 | 0.00 | 0.00 | 36 | 1018.4 |
| 20260504231532 | 54 | 331 | 15.0 | 21.0 | 0.00 | 0.00 | 0.00 | 35 | 1018.2 |
| 20260504230032 | 54 | 11 | 10.0 | 20.0 | 0.00 | 0.00 | 0.00 | 36 | 1018.3 |
| 20260504224531 | 54 | 336 | 13.0 | 21.0 | 0.00 | 0.00 | 0.00 | 35 | 1018.2 |
| 20260504223031 | 54 | 333 | 17.0 | 23.0 | 0.00 | 0.00 | 0.00 | 35 | 1018.1 |
| 20260504221530 | 54 | 334 | 9.0 | 14.0 | 0.00 | 0.00 | 0.00 | 40 | 1018.2 |
| 20260504220044 | 53 | 316 | 8.0 | 13.0 | 0.00 | 0.00 | 0.00 | 44 | 1018.2 |
| 20260504214535 | 53 | 355 | 8.0 | 13.0 | 0.00 | 0.00 | 0.00 | 44 | 1018.2 |
| 20260504213045 | 53 | 348 | 10.0 | 17.0 | 0.00 | 0.00 | 0.00 | 44 | 1018.2 |
| 20260504211537 | 53 | 336 | 9.0 | 17.0 | 0.00 | 0.00 | 0.00 | 44 | 1018.2 |
| 20260504210029 | 53 | 330 | 11.0 | 17.0 | 0.00 | 0.00 | 0.00 | 46 | 1018.2 |
| 20260504204539 | 53 | 350 | 12.0 | 18.0 | 0.00 | 0.00 | 0.00 | 45 | 1018.1 |
| 20260504203034 | 53 | 321 | 10.0 | 13.0 | 0.00 | 0.00 | 0.00 | 46 | 1018.2 |
| 20260504201529 | 53 | 328 | 8.0 | 13.0 | 0.00 | 0.00 | 0.00 | 48 | 1018.1 |
| 20260504200033 | 53 | 297 | 5.0 | 13.0 | 0.00 | 0.00 | 0.00 | 48 | 1018.1 |
| 20260504194532 | 53 | 313 | 5.0 | 11.0 | 0.00 | 0.00 | 0.00 | 49 | 1018.2 |
| 20260504193031 | 52 | 272 | 6.0 | 18.0 | 0.00 | 0.00 | 0.00 | 51 | 1018.4 |
| 20260504191535 | 53 | 311 | 6.0 | 10.0 | 0.00 | 0.00 | 0.00 | 49 | 1018.5 |
| 20260504190033 | 53 | 312 | 6.0 | 11.0 | 0.00 | 0.00 | 0.00 | 50 | 1018.5 |
| 20260504184529 | 52 | 269 | 7.0 | 11.0 | 0.00 | 0.00 | 0.00 | 52 | 1018.6 |
| 20260504183030 | 52 | 297 | 4.0 | 13.0 | 0.00 | 0.00 | 0.00 | 54 | 1018.7 |
| 20260504181534 | 52 | 306 | 6.0 | 11.0 | 0.00 | 0.00 | 0.00 | 53 | 1018.8 |
| 20260504180043 | 51 | 290 | 4.0 | 11.0 | 0.00 | 0.00 | 0.00 | 52 | 1018.9 |
| 20260504174532 | 51 | 302 | 6.0 | 10.0 | 0.00 | 0.00 | 0.00 | 54 | 1018.9 |
| 20260504173032 | 50 | 292 | 6.0 | 13.0 | 0.00 | 0.00 | 0.00 | 55 | 1019.0 |
| 20260504171529 | 50 | 266 | 5.0 | 11.0 | 0.00 | 0.00 | 0.00 | 56 | 1019.1 |